Regional Weather Roundup
Issued by NWS

Home | Current Version | Previous Version | Text Only | Print | Product List | Glossary On
Versions: 1 2 3 4 5 6 7 8 9 10 11 12 13 14 15 16 17 18 19 20 21 22 23 24 25 26 27 28 29 30 31 32 33 34 35 36 37 38 39 40 41 42 43 44 45 46 47 48 49 50
000
ASUS44 KFWD 190003
RWRTX
NORTH TEXAS HOURLY WEATHER ROUNDUP
NATIONAL WEATHER SERVICE FORT WORTH TX
600 PM CST SUN FEB 18 2018

NOTE: "FAIR" INDICATES FEW OR NO CLOUDS BELOW 12,000 FEET WITH NO
SIGNIFICANT WEATHER AND/OR OBSTRUCTIONS TO VISIBILITY.

TXZ118-119-190100-
DALLAS/FORT WORTH METROPLEX

CITY           SKY/WX    TMP DP  RH WIND       PRES   REMARKS
DFW AIRPORT    CLOUDY    63  60  90 S14       29.88F
6HR MIN TEMP:  54; 6HR MAX TEMP:  64; 6HR PCP:  0.02;

DALLAS LOVE    CLOUDY    61  59  93 S10       29.90F
6HR MIN TEMP:  52; 6HR MAX TEMP:  61; 6HR PCP:  0.08;

FTW MEACHAM    CLOUDY    64  61  90 S18G28    29.88S
6HR MIN TEMP:  53; 6HR MAX TEMP:  67; 6HR PCP:  0.01;

DAL-EXECUTIVE  CLOUDY    61  60  97 S12       29.89F FOG
6HR MIN TEMP:  52; 6HR MAX TEMP:  61; 6HR PCP:  0.18;

FTW-ALLIANCE   CLOUDY    63  60  90 S16G24    29.88S
6HR MIN TEMP:  52; 6HR MAX TEMP:  64; 6HR PCP:  0.01;

FTW-NAS-JRB    CLOUDY    63  58  83 S20G30    29.88F
6HR MIN TEMP:  53; 6HR MAX TEMP:  65; 6HR PCP:  0.02;

FTW-SPINKS     CLOUDY    61  59  94 S13G21    29.91S FOG
ARLINGTON      CLOUDY    60  60 100 S12       29.89F FOG
6HR MIN TEMP:  51; 6HR MAX TEMP:  62; 6HR PCP:  0.13;

GRAND PRAIRIE  CLOUDY    61  61 100 S12G17    29.91S
ADDISON        CLOUDY    61  57  88 S14G21    29.91S
MESQUITE       CLOUDY    59  57  94 SE9       29.91F FOG
LANCASTER      CLOUDY    60  59  95 S7        29.92F FOG
6HR MIN TEMP:  51; 6HR MAX TEMP:  60; 6HR PCP:  0.36;

$$

TXZ091>094-102>105-117-120-121-131>134-190100-
NORTH CENTRAL TEXAS

CITY           SKY/WX    TMP DP  RH WIND       PRES   REMARKS
SHRMAN/DENISON CLOUDY    56  54  94 SE9       29.90F
6HR MIN TEMP:  49; 6HR MAX TEMP:  56;

GAINESVILLE    CLOUDY    55  53  92 S9        29.89S
6HR MIN TEMP:  49; 6HR MAX TEMP:  55;

BOWIE          CLOUDY    59  56  89 S12       29.85S
6HR MIN TEMP:  51; 6HR MAX TEMP:  59;

BRIDGEPORT     CLOUDY    64  58  81 S12G18    29.87F
6HR MIN TEMP:  51; 6HR MAX TEMP:  64;

DECATUR        CLOUDY    62  58  87 S15G22    29.85S
6HR MIN TEMP:  50; 6HR MAX TEMP:  62;

DENTON         CLOUDY    62  59  90 S14       29.88F
6HR MIN TEMP:  50; 6HR MAX TEMP:  62; 6HR PCP:  0.02;

MCKINNEY       CLOUDY    60  59  96 S9        29.91S
6HR MIN TEMP:  50; 6HR MAX TEMP:  60; 6HR PCP: TRACE;

BONHAM         CLOUDY    54  52  94 E9        29.92F
6HR MIN TEMP:  48; 6HR MAX TEMP:  54;

ROCKWALL       CLOUDY    60  60 100 S9        29.92S FOG
6HR MIN TEMP:  51; 6HR MAX TEMP:  60; 6HR PCP:  0.12;

TERRELL        CLOUDY    62  59  90 S10       29.91R
6HR MIN TEMP:  55; 6HR MAX TEMP:  62; 6HR PCP:  0.08;

WAXAHACHIE     CLOUDY    60  60 100 S7G16     29.92S FOG
6HR MIN TEMP:  51; 6HR MAX TEMP:  60; 6HR PCP:  0.30;

CLEBURNE       FOG       59  59 100 S14G20    29.92S VSB 1/2
GRANBURY       CLOUDY    64  59  86 SE9G18    29.90S
6HR MIN TEMP:  52; 6HR MAX TEMP:  64; 6HR PCP:  0.06;

$$

TXZ083>090-098>101-113>116-127>130-139>142-154-155-190100-
WESTERN NORTH TEXAS

CITY           SKY/WX    TMP DP  RH WIND       PRES   REMARKS
WICHITA FALLS  FAIR      63  54  72 S17       29.77F
6HR MIN TEMP:  53; 6HR MAX TEMP:  66;

WF-KICKAPOO    FAIR      65  58  75 S17G26    29.81F
6HR MIN TEMP:  54; 6HR MAX TEMP:  66;

VERNON         FAIR      74  51  44 S22G28    29.71F
6HR MIN TEMP:  36; 6HR MAX TEMP:  77;

ABILENE        FAIR      70  61  73 S21G32    29.82R
6HR MIN TEMP:  58; 6HR MAX TEMP:  74;

GRAHAM           N/A     65  61  85 SE12      29.81F
6HR MIN TEMP:  54; 6HR MAX TEMP:  67;

BRECKENRIDGE   FAIR      70  58  66 S16G22    29.82F HAZE
6HR MIN TEMP:  59; 6HR MAX TEMP:  70;

CISCO          FAIR      68  59  73 S15G24    29.85S
EASTLAND       FAIR      66  58  75 S14       29.86S
6HR MIN TEMP:  53; 6HR MAX TEMP:  69;

RANGER         FAIR      66  59  78 S16       29.88R
6HR MIN TEMP:  52; 6HR MAX TEMP:  69;

MINERAL WELLS  MOCLDY    64  58  80 S16G28    29.85S
6HR MIN TEMP:  50; 6HR MAX TEMP:  67;

STEPHENVILLE   CLOUDY    63  58  84 S12G20    29.92R
6HR MIN TEMP:  52; 6HR MAX TEMP:  65; 6HR PCP:  0.06;

COMANCHE       FAIR      66  61  84 S20G26    29.88R
6HR MIN TEMP:  53; 6HR MAX TEMP:  71;

COLEMAN        CLOUDY    68  59  72 S16       29.88S
6HR MIN TEMP:  53; 6HR MAX TEMP:  72;

$$

TXZ143>147-156>162-174-175-190100-
CENTRAL TEXAS

CITY           SKY/WX    TMP DP  RH WIND       PRES   REMARKS
WACO           FAIR      59  56  89 S3        29.91F FOG
6HR MIN TEMP:  54; 6HR MAX TEMP:  59; 6HR PCP: TRACE;

WACO-TSTC      MOCLDY    59  59 100 S6        29.91F FOG
WACO-MCGREGOR  FAIR      60  58  92 SE5       29.91F
6HR MIN TEMP:  54; 6HR MAX TEMP:  61;

HILLSBORO      CLOUDY    60  60 100 SE8       29.91F FOG
6HR MIN TEMP:  55; 6HR MAX TEMP:  60; 6HR PCP:  0.01;

CORSICANA      CLOUDY    61  60  97 SE6       29.93F
6HR MIN TEMP:  54; 6HR MAX TEMP:  61; 6HR PCP: TRACE;

MEXIA          FAIR      67  62  86 SE10G18   29.91F
6HR MIN TEMP:  55; 6HR MAX TEMP:  67;

HEARNE         FAIR      74  65  72 SE9       29.95F
6HR MIN TEMP:  59; 6HR MAX TEMP:  77;

CAMERON        FAIR      75  63  66 S12G18    29.92F
6HR MIN TEMP:  58; 6HR MAX TEMP:  77;

TEMPLE         FAIR      70  64  81 S14       29.91F
6HR MIN TEMP:  54; 6HR MAX TEMP:  70;

KILLEEN        NOT AVBL
KILLEEN-SKYLRK FAIR      69  63  81 S13       29.91S
6HR MIN TEMP:  55; 6HR MAX TEMP:  69;

FORT HOOD      FAIR      62  59  91 CALM      29.87F
6HR MIN TEMP:  52; 6HR MAX TEMP:  62;

GATESVILLE     FAIR      61  61 100 CALM      29.93S FOG
HAMILTON       CLOUDY    61  61 100 S10       29.91F
6HR MIN TEMP:  52; 6HR MAX TEMP:  64; 6HR PCP:  0.08;

LAMPASAS       MOCLDY    66  60  83 S7        29.90F
6HR MIN TEMP:  56; 6HR MAX TEMP:  66;

$$

TXZ095>097-106>112-122>126-135>138-148>153-164>167-190100-
EAST TEXAS

CITY           SKY/WX    TMP DP  RH WIND       PRES   REMARKS
PARIS          CLOUDY    53  52  96 E8        29.96R FOG
6HR MIN TEMP:  48; 6HR MAX TEMP:  53; 6HR PCP: TRACE;

SULPHUR SPRNGS CLOUDY    60  59  97 S6        29.96S
6HR MIN TEMP:  52; 6HR MAX TEMP:  60; 6HR PCP:  0.03;

MOUNT PLEASANT CLOUDY    58  57  94 SE5       29.97R
6HR MIN TEMP:  51; 6HR MAX TEMP:  58;

GILMER         CLOUDY    59  58  95 SE10      29.95F
6HR MIN TEMP:  50; 6HR MAX TEMP:  59;

MINEOLA        FAIR      61  59  94 SE7       29.93R
TYLER          FAIR      63  61  93 SE10      29.94F
6HR MIN TEMP:  54; 6HR MAX TEMP:  63;

LONGVIEW       MOCLDY    62  61  96 SE9       29.97F FOG
6HR MIN TEMP:  51; 6HR MAX TEMP:  62;

MARSHALL       CLOUDY    58  56  91 S3        30.01F
6HR MIN TEMP:  50; 6HR MAX TEMP:  58;

ATHENS         FAIR      59  59 100 SE6       29.93F
PALESTINE      FAIR      69  64  84 SE8       29.96F
JACKSONVILLE   FAIR      65  64  94 SE6       29.99F
HENDERSON      FAIR      65  62  90 SE9       29.98F
6HR MIN TEMP:  53; 6HR MAX TEMP:  65;

CENTER         FAIR      63  61  91 E6        30.03F
6HR MIN TEMP:  54; 6HR MAX TEMP:  65;

NACOGDOCHES    FAIR      68  64  87 SE6       30.01S
6HR MIN TEMP:  58; 6HR MAX TEMP:  69;

LUFKIN         FAIR      71  64  78 S9        30.00F
6HR MIN TEMP:  63; 6HR MAX TEMP:  74;

$$

SUPPLEMENTAL OBSERVATIONS (NWS FORT WORTH AREA)

CITY           SKY/WX    TMP DP  RH WIND       PRES   REMARKS
$$

SUPPLEMENTAL OBSERVATIONS (NWS NORMAN AREA)

CITY           SKY/WX    TMP DP  RH WIND       PRES   REMARKS
GOODLETT         N/A     80  48  32 S25       29.67F
ODELL            N/A     72  56  57 SE15      29.71F
CROWELL          N



USA.gov is the U.S. government's official web portal to all federal, state and local government web resources and services.